Kezdőlap
METAR-TAF:

METAR-TAF

Repülőterek :

Airlake Airport

Minneapolis-Lakeville, Minnesota, Amerikai Egyesült Államok

földrajzi szélesség: 44-37-40N, földrajzi hosszúság: 093-13-41W, magasság: 293 m

Jelenlegi meteorológiai megfigyelések

A jelentés 29 perccel ezelõtt készült, 14:35 UTC
Dél-délkeleti szél 9 kt
Hőmérséklet 21°C
Páratartalom 100%
Légköri nyomás 1017 hPa
Látótávolság: 16.1 km
Szórványos felhőzet 2600 lábon

METAR: KLVN 281435Z AUTO 16009KT 10SM -VCTSRA SCT026 21/21 A3002 RMK AO2 LTG DSNT SE

Idő: 10:04 (15:04 UTC)


TAF: hiányzik

Meteorológiai megfigyelések és előrejelzések több, mint 4000 repülőtéren (METAR és TAF jelentéseket).

A térképen piros és sárga pontok jelzik az elérhető meteorológiai állomásokat.

Mozgassa az egeret a pont fölött, hogy megjelenjen az állomás neve.

Azután kattintson az időjárási megfigyelések és előrejelzések megtekintéséhez.

A térkép megváltoztatása: kattintson a fekete keresztel jelölt zöld gombra ráközelítéshez, a vonallal jelölt zöld gombra távolításhoz, vagy a zöld nyilakra a szomszédos térképek eléréséhez.


METAR-TAF: